Tracking 30995 objects as of 5-Jul-2025
HD Live streaming from Space Station
objects crossing your sky now

ARIANE 5 R/B

Track ARIANE 5 R/B now!


NORAD ID: 42816
Int'l Code: 2017-040C
Perigee: 269.6 km
Apogee: 33,259.6 km
Inclination: 2.7 °
Period: 583.7 minutes
Semi major axis: 23135 km
RCS: Unknown
Launch date: June 28, 2017
Source: France (FR)
Launch site: FRENCH GUIANA (FRGUI)

Note: This is a ROCKET BODY
Your satellite tracking list
Your tracking list is empty




NASA's NSSDC Master Catalog

Two Line Element Set (TLE):
1 42816U 17040C   25186.45569931  .00002431  00000-0  81515-3 0  9990
2 42816   2.6931 253.8287 7129721 154.6975 272.8213  2.46707093 68675
Source of the keplerian elements: AFSPC